N7QNM-13 Weather Reports


time (UTC)temp
C
wind
direction
speed
KPH
gust
KPH
rain 1hr
cm
rain 24hr
cm
rain mn
cm
humidity
%
barometer
mb
20201025141522 -3 40 12.9 16.1 0.00 0.00 0.00 47 1033.0
20201025140533 -3 30 14.5 20.9 0.00 0.00 0.00 47 1032.9
20201025135534 -3 47 11.3 16.1 0.00 0.00 0.00 48 1032.9
20201025134525 -3 29 8.0 11.3 0.00 0.00 0.00 49 1032.7
20201025133524 -3 328 11.3 19.3 0.00 0.00 0.00 48 1032.6
20201025132522 -2 320 8.0 11.3 0.00 0.00 0.00 47 1032.6
20201025131537 -2 334 9.7 16.1 0.00 0.00 0.00 46 1032.4
20201025130535 -2 346 11.3 17.7 0.00 0.00 0.00 48 1032.5
20201025125523 -2 344 11.3 14.5 0.00 0.00 0.00 47 1032.5
20201025124524 -2 40 11.3 14.5 0.00 0.00 0.00 47 1032.4
20201025123526 -2 15 11.3 16.1 0.00 0.00 0.00 47 1032.3
20201025122538 -2 34 11.3 16.1 0.00 0.00 0.00 48 1032.2
20201025121524 -2 18 8.0 12.9 0.00 0.00 0.00 48 1032.1
20201025120534 -2 24 11.3 14.5 0.00 0.00 0.00 48 1032.1
20201025115530 -2 15 14.5 20.9 0.00 0.00 0.00 49 1032.0
20201025114523 -2 32 12.9 19.3 0.00 0.00 0.00 50 1031.9
20201025113523 -3 26 9.7 16.1 0.00 0.00 0.00 54 1031.7
20201025112526 -4 339 3.2 4.8 0.00 0.00 0.00 56 1031.6
20201025111535 -3 11 1.6 4.8 0.00 0.00 0.00 55 1031.5
20201025110523 -3 45 6.4 14.5 0.00 0.00 0.00 55 1031.4
20201025105524 -3 5 4.8 9.7 0.00 0.00 0.00 56 1031.2
20201025104524 -3 35 0.0 4.8 0.00 0.00 0.00 56 1031.2
20201025103527 -3 58 6.4 11.3 0.00 0.00 0.00 57 1030.9
20201025102530 -3 52 6.4 9.7 0.00 0.00 0.00 58 1030.7
20201025101528 -4 68 1.6 6.4 0.00 0.00 0.00 60 1030.6
20201025100528 -4 206 1.6 3.2 0.00 0.00 0.00 59 1030.6
20201025095526 -4 203 0.0 3.2 0.00 0.00 0.00 58 1030.6
20201025094527 -4 193 3.2 8.0 0.00 0.00 0.00 58 1030.4
20201025093523 -4 175 4.8 6.4 0.00 0.00 0.00 58 1030.3
20201025092522 -3 169 8.0 9.7 0.00 0.00 0.00 58 1030.2
20201025091532 -3 191 6.4 8.0 0.00 0.00 0.00 56 1030.2
20201025090530 -2 5 3.2 9.7 0.00 0.00 0.00 54 1030.1
20201025085525 -2 11 6.4 11.3 0.00 0.00 0.00 54 1029.9
20201025084522 -2 14 8.0 11.3 0.00 0.00 0.00 54 1029.8
20201025083528 -2 16 11.3 17.7 0.00 0.00 0.00 56 1029.7
20201025082524 -2 11 9.7 12.9 0.00 0.00 0.00 57 1029.7
20201025081532 -2 357 8.0 14.5 0.00 0.00 0.00 57 1029.4
20201025080525 -2 9 8.0 12.9 0.00 0.00 0.00 57 1029.4
20201025075529 -2 5 9.7 12.9 0.00 0.00 0.00 56 1029.4
20201025074521 -2 338 12.9 17.7 0.00 0.00 0.00 55 1029.1
20201025073533 -2 344 12.9 16.1 0.00 0.00 0.00 56 1029.1
20201025072528 -2 353 11.3 16.1 0.00 0.00 0.00 57 1029.2
20201025071526 -2 354 9.7 12.9 0.00 0.00 0.00 57 1028.9
20201025070528 -2 344 8.0 11.3 0.00 0.00 0.00 57 1029.0
20201025065529 -2 288 6.4 9.7 0.00 0.00 0.00 56 1028.9
20201025064528 -1 288 4.8 8.0 0.00 0.00 0.00 54 1028.8
20201025063525 -1 293 8.0 14.5 0.00 0.00 0.00 52 1028.8
20201025062521 -1 329 4.8 9.7 0.00 0.00 0.00 52 1028.9
20201025061529 -1 289 6.4 8.0 0.00 0.00 0.00 54 1028.8
20201025060532 -2 272 4.8 6.4 0.00 0.00 0.00 57 1028.6
20201025055526 -2 252 3.2 4.8 0.00 0.00 0.00 58 1028.5
20201025054523 -1 1 1.6 6.4 0.00 0.00 0.00 56 1028.2
20201025053523 -1 251 4.8 8.0 0.00 0.00 0.00 56 1028.1
20201025052531 -1 288 3.2 6.4 0.00 0.00 0.00 58 1028.0
20201025051533 -1 308 9.7 14.5 0.00 0.00 0.00 56 1027.8
20201025050535 -3 196 1.6 6.4 0.00 0.00 0.00 64 1028.0
20201025045529 -3 225 0.0 1.6 0.00 0.00 0.00 62 1028.0
20201025044530 -2 173 3.2 3.2 0.00 0.00 0.00 60 1027.7
20201025043527 -2 177 4.8 6.4 0.00 0.00 0.00 59 1027.6
20201025042523 -2 164 1.6 4.8 0.00 0.00 0.00 59 1027.6
20201025041530 -1 235 4.8 6.4 0.00 0.00 0.00 59 1027.4
20201025040531 -1 192 3.2 4.8 0.00 0.00 0.00 58 1027.3
20201025035525 -1 216 3.2 4.8 0.00 0.00 0.00 58 1027.2
20201025034527 -1 206 1.6 3.2 0.00 0.00 0.00 56 1027.2
20201025033521 -1 125 3.2 4.8 0.00 0.00 0.00 55 1027.0
20201025032521 0 87 4.8 8.0 0.00 0.00 0.00 53 1027.0
20201025031528 0 79 8.0 12.9 0.00 0.00 0.00 52 1026.9
20201025030525 0 78 9.7 14.5 0.00 0.00 0.00 52 1026.8
20201025025532 0 57 9.7 16.1 0.00 0.00 0.00 50 1026.7
20201025024530 0 53 12.9 16.1 0.00 0.00 0.00 49 1026.4
20201025023522 1 53 9.7 24.1 0.00 0.00 0.00 49 1026.5
20201025022521 1 53 14.5 20.9 0.00 0.00 0.00 49 1026.4
20201025021522 0 58 12.9 17.7 0.00 0.00 0.00 51 1026.4
20201025020530 0 58 4.8 9.7 0.00 0.00 0.00 51 1026.1
20201025015526 1 41 8.0 11.3 0.00 0.00 0.00 51 1026.1
20201025014534 1 53 8.0 12.9 0.00 0.00 0.00 50 1026.1
20201025013523 1 59 9.7 12.9 0.00 0.00 0.00 50 1026.1
20201025012525 1 45 11.3 16.1 0.00 0.00 0.00 49 1025.8
20201025011525 2 51 12.9 19.3 0.00 0.00 0.00 49 1025.8
20201025010536 2 68 16.1 24.1 0.00 0.00 0.00 48 1025.7
20201025005536 2 84 16.1 20.9 0.00 0.00 0.00 48 1025.5
20201025004529 2 76 17.7 20.9 0.00 0.00 0.00 48 1025.3
20201025003525 2 77 12.9 24.1 0.00 0.00 0.00 47 1025.0
20201025002528 3 49 12.9 20.9 0.00 0.00 0.00 47
20201025001538 3 65 11.3 14.5 0.00 0.00 0.00 45
20201025000535 4 65 14.5 24.1 0.00 0.00 0.00 43 1024.9
20201024235539 5 53 16.1 24.1 0.00 0.00 0.00 42 1024.9
20201024234524 5 80 11.3 16.1 0.00 0.00 0.00 42 1024.7
20201024233533 5 63 16.1 24.1 0.00 0.00 0.00 41 1024.5
20201024232534 5 38 17.7 24.1 0.00 0.00 0.00 40 1024.4
20201024231526 6 31 9.7 12.9 0.00 0.00 0.00 40 1024.3
20201024230539 5 41 14.5 17.7 0.00 0.00 0.00 40 1024.2
20201024225524 6 55 20.9 27.4 0.00 0.00 0.00 42 1024.3
20201024224544 6 31 19.3 29.0 0.00 0.00 0.00 40 1024.0
20201024223527 6 53 19.3 24.1 0.00 0.00 0.00 40 1024.0
20201024222529 6 68 19.3 29.0 0.00 0.00 0.00 40 1024.1
20201024221525 6 65 14.5 20.9 0.00 0.00 0.00 41 1023.8
20201024220523 5 48 14.5 19.3 0.00 0.00 0.00 41 1023.8
20201024215535 5 52 17.7 27.4 0.00 0.00 0.00 42 1023.8
20201024214523 6 44 14.5 22.5 0.00 0.00 0.00 41 1023.7
20201024213526 6 54 16.1 22.5 0.00 0.00 0.00 41 1023.6
20201024212525 5 43 17.7 24.1 0.00 0.00 0.00 44 1023.5
20201024211533 5 28 19.3 32.2 0.00 0.00 0.00 42 1023.6
20201024210524 5 50 16.1 24.1 0.00 0.00 0.00 46 1023.6
20201024205522 5 56 20.9 38.6 0.00 0.00 0.00 45 1023.7
20201024203030 5 15 12.9 20.9 0.00 0.00 0.00 50 1023.5
20201024202027 4 51 12.9 17.7 0.00 0.00 0.00 50 1023.7
20201024201041 4 47 14.5 19.3 0.00 0.00 0.00 51 1023.9
20201024200033 4 38 9.7 12.9 0.00 0.00 0.00 52 1023.9
20201024195033 4 61 8.0 9.7 0.00 0.00 0.00 53 1023.9
20201024194028 3 65 11.3 20.9 0.00 0.00 0.00 54 1023.7
20201024193023 3 37 12.9 19.3 0.00 0.00 0.00 54 1023.5
20201024192027 3 65 8.0 11.3 0.00 0.00 0.00 56 1023.5
20201024191028 3 60 11.3 17.7 0.00 0.00 0.00 57 1023.4
20201024190044 3 80 8.0 11.3 0.00 0.00 0.00 59 1023.3
20201024185040 3 48 8.0 11.3 0.00 0.00 0.00 61 1023.2
20201024184026 3 83 9.7 16.1 0.00 0.00 0.00 62 1023.2
20201024183028 2 48 14.5 19.3 0.00 0.00 0.00 62 1023.1
20201024182026 2 54 9.7 12.9 0.00 0.00 0.00 64 1023.1
20201024181028 2 55 6.4 11.3 0.00 0.00 0.00 65 1022.9
20201024180040 2 48 11.3 17.7 0.00 0.00 0.00 64 1022.8
20201024175025 2 65 11.3 19.3 0.00 0.00 0.00 64 1022.7
20201024174022 2 37 9.7 14.5 0.00 0.00 0.00 65 1022.6
20201024173040 2 44 12.9 16.1 0.00 0.00 0.00 67 1022.5
20201024172026 3 45 11.3 14.5 0.00 0.00 0.00 63 1022.3
20201024171024 3 46 14.5 20.9 0.00 0.00 0.00 61 1022.1
20201024170032 3 12 11.3 16.1 0.00 0.00 0.00 65 1022.1
20201024165028 3 29 12.9 19.3 0.00 0.00 0.00 70 1021.9
20201024164024 3 41 8.0 14.5 0.00 0.00 0.00 72 1021.6
20201024163029 3 67 4.8 6.4 0.00 0.00 0.00 74 1021.4
20201024162040 3 57 6.4 9.7 0.00 0.00 0.00 74 1021.3
20201024161031 3 25 6.4 8.0 0.00 0.00 0.00 74 1021.1
20201024160035 3 57 6.4 9.7 0.00 0.00 0.00 73 1021.0
20201024155030 3 43 6.4 8.0 0.00 0.00 0.00 71 1020.6
20201024154030 3 5 8.0 14.5 0.00 0.00 0.00 71 1020.4
20201024153027 3 26 8.0 12.9 0.00 0.00 0.00 70 1020.2
20201024152027 3 47 11.3 16.1 0.00 0.00 0.00 71 1020.2
20201024151029 3 15 11.3 17.7 0.00 0.00 0.00 72 1020.0
20201024150053 3 248 1.6 4.8 0.00 0.00 0.00 74 1019.8
20201024145028 3 292 8.0 11.3 0.00 0.00 0.00 75 1019.5
20201024144046 3 283 4.8 9.7 0.00 0.00 0.00 77 1019.4
20201024143026 3 6 4.8 9.7 0.00 0.00 0.00 76 1019.2